sat.trackr.live / text

‹ back to catalog

STARLINK-1067

NORAD 44771 · 2019-074BL

PAYLOAD ACTIVE UNKNOWN

§ Identity

Operator
Country
US
Launch date
2019-11-11
Launch site
AFETR
Launch vehicle
Mass (kg)
RCS (m²)

Purposes: comms

External: N2YO · Heavens-Above · Gunter

§ Orbital elements

Epoch: 2026-09-17T04:31:39.548352Z

Period
88.27 min
Inclination
53.0228°
Eccentricity
0.0007533
Mean motion
16.31355491 rev/d
Perigee alt
184.0 km
Apogee alt
193.8 km
Semi-major
6,567.0 km
B*
7.9550e-4
RAAN
323.9743°
Arg perigee
343.4983°
Mean anomaly
16.5813°
Rev number
37,877

§ Raw data

STARLINK-10671 44771U 19074BL  26260.18865218  .04276665  12164-4  79550-3 0  99922 44771  53.0228 323.9743 0007533 343.4983  16.5813 16.31355491378772

JSON: /api/v1/satellites/44771 · /tle

For live sub-satellite position, see the globe view (requires WebGL).

§ Visibility from observer

Set your observer location to see the next 7 days of passes ≥ 10°. The values pass through the URL so the page stays shareable.

No JS? Fill the form by hand. The geolocation button needs JavaScript.